Hourly Data Report for September 25, 2017

All times are specified in Local Standard Time (LST). Add 1 hour to adjust for Daylight Saving Time where and when it is observed.

POINT LEPREAU CS
NEW BRUNSWICK

45°04'23.040" N
66°26'57.090" W
6.00 m
8104201
71699
WPE

Download Data

Hourly Data (September 2017)
Hourly Data Report for September 25, 2017
Temp Definition
°C
Dew Point Temp Definition
°C
Rel Hum Definition
%
Wind Dir Definition
10's deg

Wind Spd Definition
km/h
Visibility Definition
km
Stn Press Definition
kPa
Hmdx Definition


Wind Chill Definition


Weather Definition


TIME
00:00 15.4 14.5 95 3 6   101.53     LegendNANA
01:00 14.6 13.9 95 8 4   101.60     LegendNANA
02:00 14.7 14.0 96 7 6   101.60     LegendNANA
03:00 14.3 13.8 97 7 4   101.59     LegendNANA
04:00 13.6 13.3 98 10 3   101.60     LegendNANA
05:00 14.7 14.4 98 7 7   101.67     LegendNANA
06:00 14.6 14.3 98 8 6   101.73     LegendNANA
07:00 14.8 14.5 98 3 8   101.81     LegendNANA
08:00 17.4 15.5 89 8 9   101.85     LegendNANA
09:00 17.5 15.1 86 7 15   101.88     LegendNANA
10:00 17.5 15.0 85 9 14   101.91     LegendNANA
11:00 18.3 15.4 84 10 15   101.88     LegendNANA
12:00 19.1 16.0 82 10 12   101.85     LegendNANA
13:00 18.3 15.4 83 10 15   101.82     LegendNANA
14:00 17.1 15.0 87 14 5   101.80     LegendNANA
15:00 17.8 15.2 85 13 2   101.76     LegendNANA
16:00 16.6 14.9 90 15 5   101.74     LegendNANA
17:00 17.7 15.5 87 18 2   101.73     LegendNANA
18:00 15.2 14.3 94 18 4   101.71     LegendNANA
19:00 14.5 13.9 96 16 3   101.70     LegendNANA
20:00 14.1 13.7 98 18 3   101.71     LegendNANA
21:00 13.9 13.6 98 26 4   101.69     LegendNANA
22:00 14.6 14.3 98 26 6   101.67     LegendNANA
23:00 14.1 14.0 99 25 5   101.62     LegendNANA

Notes on Data Quality.

Legend

  • E = Estimated
  • M = Missing
  • NA = Not Available
  • ‡ = Partner data that is not subject to review by the National Climate Archives
Date modified: